Regional Weather Roundup
Issued by NWS

Home | Current Version | Previous Version | Text Only | Print | Product List | Glossary On
Versions: 1 2 3 4 5 6 7 8 9 10 11 12 13 14 15 16 17 18 19 20 21 22 23 24 25 26 27 28 29 30 31 32 33 34 35 36 37 38 39 40 41 42 43 44 45 46 47 48 49 50
000
ASUS46 KPQR 050410
RWROR

OREGON REGIONAL WEATHER ROUNDUP
NATIONAL WEATHER SERVICE PORTLAND OR
900 PM PDT SAT JUL 04 2015

NOTE: "FAIR" INDICATES FEW OR NO CLOUDS BELOW 12,000 FEET WITH
NO SIGNIFICANT WEATHER AND/OR OBSTRUCTIONS TO VISIBILITY.

ORZ001>013-050500-
NORTHWEST OREGON


CITY           SKY/WX    TMP DP  RH WIND       PRES   REMARKS
ASTORIA        CLEAR     61  56  83 W5        29.81R
NEWPORT        PTCLDY    59  55  88 CALM      29.87R FOG
PORTLAND       MOCLDY    87  61  41 NW6       29.73R
VANCOUVER WA   PTCLDY    87  56  34 VRB7      29.73R
SCAPPOOSE      PTCLDY    83  58  42 N6        29.73R
HILLSBORO      PTCLDY    85  57  38 NW7       29.74R
AURORA         MOCLDY    84  55  36 W5        29.75R
MCMINNVILLE    MOCLDY    81  55  40 SW13      29.75R
SALEM          PTCLDY    84  51  31 SW6       29.75R
CORVALLIS      PTCLDY    75  52  43 NW15      29.79R
EUGENE         MOCLDY    82  60  47 SW7       29.78R
$$

ORZ021-028-050500-
SOUTHWEST OREGON


CITY           SKY/WX    TMP DP  RH WIND       PRES   REMARKS
NORTH BEND     PTCLDY    59  57  94 NW6       29.86S
BROOKINGS      MOCLDY    61  60  96 CALM      29.87S
ROSEBURG       PTCLDY    88  54  31 N7        29.77R
SEXTON SUMMIT  PTCLDY    73  51  46 N5        29.97R
MEDFORD        MOCLDY    91  50  24 NE3       29.78R
$$

ORZ014>016-041-050500-
COLUMBIA GORGE


CITY           SKY/WX    TMP DP  RH WIND       PRES   REMARKS
TROUTDALE      PTCLDY    88  54  31 CALM      29.71R
THE DALLES     MOCLDY    92  46  20 W13       29.65R
$$

ORZ029>031-041-044-049-050-061>064-502-503-505>511-050500-
EASTERN OREGON


CITY           SKY/WX    TMP DP  RH WIND       PRES   REMARKS
REDMOND        PTCLDY    81  41  24 NW8       29.87R
BEND             N/A    N/A N/A N/A MISG        N/A
PRINEVILLE     PTCLDY    81  39  22 W9        29.88S
KLAMATH FALLS  CLOUDY    76  47  35 S10       29.97R
LAKEVIEW       CLOUDY    70  52  52 S10       30.02R
HERMISTON      PTCLDY    92  51  24 SW6       29.62R
PENDLETON      PTCLDY    89  41  18 CALM      29.69R
JOHN DAY       MOCLDY    82  32  16 SW3       29.88S
MEACHAM        PTCLDY    71  51  49 CALM      29.88R
LA GRANDE      MOCLDY    82  46  28 CALM      29.80S
BAKER CITY     CLOUDY    75  50  41 N6        29.85R
BURNS          PTCLDY    83  23  11 NW9       29.90R
ROME             N/A     80  53  39 S21G29    29.92R
ONTARIO        MOCLDY    82  57  42 W7        29.72R
$$



USA.gov is the U.S. government's official web portal to all federal, state and local government web resources and services.